This demonstration page uses our WeatherBlox Daily Observations layout. Learn more.

Left ArrowRight Arrow

53.62937, 11.41316

Hourly Observations for June 12, 2017

Temp ( °F °C ) Dew Point ( °F °C ) Humidity (%) Winds ( mph kmh ) Pressure ( in mb ) Visibility ( mi km ) Precip ( " mm )
6:20 am 06:20 Mostly Cloudy 63 17 63 17 100 100 WSW 6 9 29.80 1009 6 9 N/A
6:50 am 06:50 Partly Cloudy 63 17 61 16 94 94 W 8 13 29.80 1009 30 48 N/A
7:20 am 07:20 Mostly Cloudy 63 17 61 16 94 94 W 8 13 29.80 1009 30 48 N/A
7:50 am 07:50 Mostly Cloudy 63 17 61 16 94 94 WSW 10 17 29.77 1008 30 48 N/A
8:20 am 08:20 Mostly Cloudy 63 17 59 15 88 88 WSW 15 24 29.80 1009 30 48 N/A
8:50 am 08:50 Mostly Cloudy 64 18 59 15 83 83 WSW 14 22 29.80 1009 30 48 N/A
9:20 am 09:20 Mostly Cloudy 64 18 57 14 78 78 WSW 14 22 29.80 1009 30 48 N/A
9:50 am 09:50 Partly Cloudy 66 19 57 14 73 73 WSW 15 24 29.80 1009 30 48 N/A
10:20 am 10:20 Mostly Cloudy 66 19 57 14 73 73 WSW 16 26 29.80 1009 30 48 N/A
10:50 am 10:50 Partly Cloudy 66 19 55 13 68 68 WSW 16 26 29.80 1009 30 48 N/A
11:04 am 11:04 Mostly Cloudy 66 19 55 13 68 68 W 17 28 29.80 1009 30 48 N/A
11:20 am 11:20 Mostly Cloudy 66 19 54 12 64 64 WSW 18 30 29.80 1009 30 48 N/A
11:50 am 11:50 Mostly Cloudy 68 20 54 12 60 60 WSW 22 35 29.80 1009 30 48 N/A
12:20 pm 12:20 Mostly Cloudy 66 19 54 12 64 64 W 20 31 29.83 1010 30 48 N/A
12:50 pm 12:50 Mostly Sunny 64 18 52 11 64 64 W 18 30 29.83 1010 7 11 N/A
1:20 pm 13:20 Mostly Cloudy 70 21 54 12 57 57 W 20 31 29.83 1010 30 48 N/A
1:50 pm 13:50 Mostly Cloudy 68 20 52 11 56 56 W 21 33 29.83 1010 30 48 N/A
2:20 pm 14:20 Mostly Cloudy 66 19 50 10 56 56 W 20 31 29.83 1010 30 48 N/A
2:50 pm 14:50 Mostly Cloudy 64 18 52 11 64 64 W 15 24 29.85 1011 30 48 N/A
3:20 pm 15:20 Mostly Cloudy 64 18 50 10 60 60 W 18 30 29.85 1011 30 48 N/A
3:50 pm 15:50 Mostly Cloudy 64 18 50 10 60 60 W 22 35 29.85 1011 30 48 N/A
4:20 pm 16:20 Mostly Cloudy 64 18 50 10 60 60 WSW 18 30 29.85 1011 30 48 N/A
4:50 pm 16:50 Mostly Cloudy 64 18 50 10 60 60 W 17 28 29.85 1011 30 48 N/A
5:20 pm 17:20 Mostly Cloudy 61 16 52 11 72 72 W 15 24 29.88 1012 30 48 N/A
5:50 pm 17:50 Mostly Cloudy 63 17 54 12 73 73 W 14 22 29.88 1012 30 48 N/A

Powered by AerisWeather